| time (UTC) | temp C | wind direction | speed KPH | gust KPH | rain 1hr cm | rain 24hr cm | rain mn cm | humidity % | barometer mb |
| 20260506150026 | 23 | 248 | 0.0 | 0.0 | 0.00 | 0.00 | 0.00 | 89 | 1011.9 |
| 20260506144533 | 23 | 248 | 0.0 | 0.0 | 0.00 | 0.00 | 0.00 | 89 | 1011.7 |
| 20260506143032 | 23 | 215 | 0.0 | 3.2 | 0.00 | 0.00 | 0.00 | 89 | 1011.7 |
| 20260506141518 | 23 | 228 | 0.0 | 3.2 | 0.00 | 0.00 | 0.00 | 89 | 1011.5 |
| 20260506140025 | 23 | 309 | 0.0 | 3.2 | 0.00 | 0.00 | 0.00 | 89 | 1011.0 |
| 20260506134527 | 23 | 306 | 1.6 | 4.8 | 0.00 | 0.00 | 0.00 | 89 | 1010.7 |
| 20260506133030 | 23 | 301 | 0.0 | 4.8 | 0.00 | 0.00 | 0.00 | 89 | 1010.2 |
| 20260506131532 | 23 | 306 | 1.6 | 3.2 | 0.00 | 0.00 | 0.00 | 90 | 1010.1 |
| 20260506130024 | 23 | 272 | 0.0 | 3.2 | 0.00 | 0.00 | 0.00 | 90 | 1010.1 |
| 20260506124524 | 23 | 331 | 0.0 | 4.8 | 0.00 | 0.00 | 0.00 | 90 | 1009.9 |
| 20260506123029 | 22 | 302 | 1.6 | 4.8 | 0.00 | 0.00 | 0.00 | 90 | 1009.7 |
| 20260506121516 | 22 | 281 | 0.0 | 3.2 | 0.00 | 0.00 | 0.00 | 90 | 1009.7 |
| 20260506120022 | 22 | 312 | 0.0 | 4.8 | 0.00 | 0.00 | 0.00 | 90 | 1009.7 |
| 20260506114528 | 22 | 288 | 0.0 | 1.6 | 0.00 | 0.00 | 0.00 | 91 | 1009.8 |
| 20260506113026 | 22 | 315 | 0.0 | 0.0 | 0.00 | 0.00 | 0.00 | 91 | 1009.7 |
| 20260506111528 | 22 | 317 | 0.0 | 3.2 | 0.00 | 0.00 | 0.00 | 91 | 1009.7 |
| 20260506110022 | 22 | 271 | 0.0 | 3.2 | 0.00 | 0.00 | 0.00 | 91 | 1009.8 |
| 20260506104527 | 22 | 312 | 0.0 | 3.2 | 0.00 | 0.00 | 0.00 | 91 | 1009.8 |
| 20260506103033 | 22 | 339 | 0.0 | 6.4 | 0.00 | 0.00 | 0.00 | 91 | 1009.8 |
| 20260506101541 | 22 | 336 | 1.6 | 3.2 | 0.00 | 0.00 | 0.00 | 91 | 1009.7 |
| 20260506100028 | 22 | 282 | 1.6 | 6.4 | 0.00 | 0.00 | 0.00 | 91 | 1009.8 |
| 20260506094525 | 22 | 316 | 1.6 | 8.0 | 0.00 | 0.00 | 0.00 | 91 | 1009.9 |
| 20260506093004 | 23 | 281 | 1.6 | 9.7 | 0.00 | 0.00 | 0.00 | 90 | 1009.8 |
| 20260506091513 | 23 | 313 | 1.6 | 9.7 | 0.00 | 0.00 | 0.00 | 90 | 1009.6 |
| 20260506090016 | 23 | 302 | 3.2 | 6.4 | 0.00 | 0.00 | 0.00 | 89 | 1009.5 |
| 20260506084520 | 23 | 318 | 1.6 | 12.9 | 0.00 | 0.00 | 0.00 | 89 | 1009.4 |
| 20260506083006 | 23 | 262 | 3.2 | 11.3 | 0.00 | 0.00 | 0.00 | 89 | 1009.3 |
| 20260506081508 | 23 | 302 | 3.2 | 9.7 | 0.00 | 0.00 | 0.00 | 89 | 1009.5 |
| 20260506073038 | 23 | 319 | 3.2 | 11.3 | 0.00 | 0.00 | 0.00 | 88 | 1009.9 |
| 20260506071505 | 23 | 271 | 4.8 | 8.0 | 0.00 | 0.00 | 0.00 | 87 | 1010.1 |
| 20260506061526 | 23 | 359 | 0.0 | 11.3 | 0.00 | 0.00 | 0.00 | 86 | 1010.0 |
| 20260506044531 | 25 | 269 | 3.2 | 12.9 | 0.00 | 0.00 | 0.00 | 84 | 1009.9 |
| 20260506043016 | 25 | 270 | 3.2 | 9.7 | 0.00 | 0.00 | 0.00 | 84 | 1009.6 |
| 20260506041523 | 25 | 289 | 1.6 | 4.8 | 0.00 | 0.00 | 0.00 | 85 | 1009.5 |
| 20260506040028 | 25 | 254 | 1.6 | 3.2 | 0.00 | 0.00 | 0.00 | 84 | 1009.4 |
| 20260506034527 | 25 | 270 | 0.0 | 4.8 | 0.00 | 0.00 | 0.00 | 83 | 1009.4 |
| 20260506033016 | 24 | 283 | 1.6 | 3.2 | 0.00 | 0.00 | 0.00 | 84 | 1009.0 |
| 20260506031519 | 24 | 240 | 0.0 | 3.2 | 0.00 | 0.00 | 0.00 | 83 | 1008.8 |
| 20260506030026 | 24 | 233 | 0.0 | 0.0 | 0.00 | 0.00 | 0.00 | 81 | 1008.6 |
| 20260506024529 | 25 | 253 | 0.0 | 3.2 | 0.00 | 0.00 | 0.00 | 80 | 1008.3 |
| 20260506023012 | 25 | 280 | 0.0 | 1.6 | 0.00 | 0.00 | 0.00 | 79 | 1008.3 |
| 20260506021518 | 25 | 289 | 0.0 | 0.0 | 0.00 | 0.00 | 0.00 | 78 | 1008.0 |
| 20260506020024 | 25 | 289 | 0.0 | 1.6 | 0.00 | 0.00 | 0.00 | 78 | 1007.9 |
| 20260506014529 | 26 | 285 | 0.0 | 3.2 | 0.00 | 0.00 | 0.00 | 75 | 1007.6 |
| 20260506013027 | 26 | 302 | 0.0 | 3.2 | 0.00 | 0.00 | 0.00 | 74 | 1007.3 |
| 20260506011517 | 27 | 295 | 0.0 | 3.2 | 0.00 | 0.00 | 0.00 | 72 | 1007.2 |
| 20260506010021 | 27 | 280 | 0.0 | 3.2 | 0.00 | 0.00 | 0.00 | 1007.0 | |
| 20260506004533 | 28 | 280 | 0.0 | 0.0 | 0.00 | 0.00 | 0.00 | 69 | 1007.2 |
| 20260506003038 | 28 | 280 | 0.0 | 1.6 | 0.00 | 0.00 | 0.00 | 66 | 1007.2 |
| 20260506001528 | 28 | 284 | 0.0 | 3.2 | 0.00 | 0.00 | 0.00 | 65 | 1007.2 |
| 20260506000025 | 29 | 284 | 0.0 | 4.8 | 0.00 | 0.00 | 0.00 | 63 | 1007.3 |
| 20260505234532 | 29 | 308 | 0.0 | 4.8 | 0.00 | 0.00 | 0.00 | 64 | 1007.2 |
| 20260505233027 | 30 | 279 | 1.6 | 4.8 | 0.00 | 0.00 | 0.00 | 62 | 1007.2 |
| 20260505231526 | 30 | 356 | 0.0 | 6.4 | 0.00 | 0.00 | 0.00 | 63 | 1007.2 |
| 20260505230014 | 29 | 318 | 0.0 | 8.0 | 0.00 | 0.00 | 0.00 | 64 | 1007.2 |
| 20260505224520 | 30 | 316 | 1.6 | 8.0 | 0.00 | 0.00 | 0.00 | 64 | 1007.2 |
| 20260505223026 | 29 | 314 | 4.8 | 11.3 | 0.00 | 0.00 | 0.00 | 63 | 1007.1 |
| 20260505221525 | 30 | 289 | 1.6 | 11.3 | 0.00 | 0.00 | 0.00 | 62 | 1007.2 |
| 20260505220038 | 30 | 258 | 1.6 | 11.3 | 0.00 | 0.00 | 0.00 | 62 | 1007.2 |
| 20260505214523 | 30 | 269 | 4.8 | 12.9 | 0.00 | 0.00 | 0.00 | 62 | 1007.3 |
| 20260505213026 | 30 | 343 | 1.6 | 6.4 | 0.00 | 0.00 | 0.00 | 62 | 1007.4 |
| 20260505211524 | 30 | 322 | 3.2 | 12.9 | 0.00 | 0.00 | 0.00 | 63 | 1007.7 |
| 20260505204527 | 30 | 305 | 3.2 | 12.9 | 0.00 | 0.00 | 0.00 | 63 | 1008.1 |
| 20260505203020 | 29 | 329 | 3.2 | 9.7 | 0.00 | 0.00 | 0.00 | 63 | 1008.3 |
| 20260505201525 | 29 | 1 | 3.2 | 11.3 | 0.00 | 0.00 | 0.00 | 64 | 1008.5 |
| 20260505200027 | 28 | 8 | 3.2 | 12.9 | 0.00 | 0.00 | 0.00 | 65 | 1008.8 |
| 20260505194534 | 28 | 352 | 4.8 | 11.3 | 0.00 | 0.00 | 0.00 | 65 | 1009.0 |
| 20260505193034 | 28 | 338 | 3.2 | 9.7 | 0.00 | 0.00 | 0.00 | 67 | 1009.2 |
| 20260505191532 | 28 | 280 | 3.2 | 6.4 | 0.00 | 0.00 | 0.00 | 67 | 1009.2 |
| 20260505190026 | 27 | 11 | 1.6 | 8.0 | 0.00 | 0.00 | 0.00 | 70 | 1009.3 |
| 20260505184531 | 27 | 30 | 3.2 | 9.7 | 0.00 | 0.00 | 0.00 | 70 | 1009.6 |
| 20260505183029 | 27 | 303 | 3.2 | 9.7 | 0.00 | 0.00 | 0.00 | 70 | 1009.9 |
| 20260505181522 | 26 | 297 | 4.8 | 11.3 | 0.00 | 0.00 | 0.00 | 73 | 1010.1 |
| 20260505180040 | 25 | 315 | 1.6 | 4.8 | 0.00 | 0.00 | 0.00 | 77 | 1010.4 |
| 20260505174535 | 25 | 47 | 1.6 | 8.0 | 0.00 | 0.00 | 0.00 | 77 | 1010.4 |
| 20260505173028 | 25 | 15 | 1.6 | 6.4 | 0.00 | 0.00 | 0.00 | 81 | 1010.3 |
| 20260505171534 | 23 | 333 | 3.2 | 6.4 | 0.00 | 0.00 | 0.00 | 82 | 1010.4 |
| 20260505170031 | 23 | 295 | 0.0 | 6.4 | 0.00 | 0.00 | 0.00 | 84 | 1010.4 |
| 20260505164526 | 22 | 24 | 3.2 | 8.0 | 0.00 | 0.00 | 0.00 | 86 | 1010.4 |
| 20260505163028 | 22 | 4 | 3.2 | 6.4 | 0.00 | 0.00 | 0.00 | 88 | 1010.3 |
| 20260505161528 | 21 | 32 | 1.6 | 4.8 | 0.00 | 0.00 | 0.00 | 92 | 1010.3 |
| 20260505153009 | 20 | 333 | 1.6 | 4.8 | 0.00 | 0.00 | 0.00 | 94 | 1010.5 |
| 20260505151514 | 20 | 302 | 1.6 | 4.8 | 0.00 | 0.00 | 0.00 | 94 | 1010.5 |